London-Corbin, KY

11:31 PM EDT on September 22, 2017 (GMT -0400)
London-Corbin / McKee

Weather History for KLOZ - November, 2012

Change the Weather History Date:

Saturday, November 3, 2012

  Actual Average Record
Temperature  
Mean Temperature 43 °F 52 °F  
Max Temperature 56 °F 64 °F 80 °F (1974)
Min Temperature 30 °F 40 °F 17 °F (1963)
Degree Days  
Heating Degree Days 22 13  
Month to date heating degree days 61 39  
Since 1 July heating degree days 460 345  
Cooling Degree Days 0 0  
Month to date cooling degree days 0 0  
Year to date cooling degree days 1226 1188  
Moisture  
Dew Point 33 °F    
Average Humidity 67    
Maximum Humidity 92    
Minimum Humidity 41    
Precipitation  
Precipitation 0.19 in 0.12 in 0.79 in (1982)
Month to date precipitation 0.19 0.35  
Year to date precipitation 39.40  
Sea Level Pressure  
Sea Level Pressure 30.07 in    
Wind  
Wind Speed 3 mph (NE)    
Max Wind Speed 15 mph    
Max Gust Speed 20 mph    
Visibility 10 miles    
Events Rain , Thunderstorm    
T = Trace of Precipitation, MM = Missing Value Source: NWS Daily Summary

Daily Weather History Graph

Daily Weather History Graph

Search for Another Location

Airport or City:

Trip Planner

Search our weather history database for the weather conditions in past years. The results will help you decide how hot, cold, wet, or windy it might be!

Date:

Astronomy

Nov. 03, 2012 Rise Set
Actual Time 8:03 AM EDT 6:36 PM EDT
Civil Twilight 7:36 AM EDT 7:03 PM EDT
Nautical Twilight 7:05 AM EDT 7:34 PM EDT
Astronomical Twilight 6:34 AM EDT 8:04 PM EDT
Moon 10:18 PM EDT (11/3) 12:04 PM EDT (11/3)
Length of Visible Light 11h 27m
Length of Day
10h 33m
Waning Gibbous, 80% of the Moon is Illuminated
Nov 3
Waning Gibbous
Nov 6
Last Quarter
Nov 13
New
Nov 20
First Quarter
Nov 28
Full

Hourly Weather History & Observations

Time (EDT) Temp. Windchill Dew Point Humidity Pressure Visibility Wind Dir Wind Speed Gust Speed Precip Events Conditions
12:53 AM 35.1 °F - 30.9 °F 85% 30.07 in 10.0 mi Calm Calm - N/A   Clear
1:53 AM 34.0 °F - 30.9 °F 89% 30.08 in 10.0 mi Calm Calm - N/A   Clear
2:53 AM 34.0 °F - 30.9 °F 89% 30.09 in 10.0 mi Calm Calm - N/A   Clear
3:53 AM 32.0 °F 28.7 °F 30.0 °F 92% 30.09 in 10.0 mi NNE 3.5 mph - N/A   Clear
4:53 AM 30.9 °F - 28.9 °F 92% 30.10 in 10.0 mi Calm Calm - N/A   Clear
5:53 AM 30.9 °F - 28.9 °F 92% 30.12 in 10.0 mi Calm Calm - N/A   Clear
6:53 AM 30.9 °F - 28.9 °F 92% 30.13 in 9.0 mi Calm Calm - N/A   Clear
7:53 AM 30.9 °F - 28.9 °F 92% 30.14 in 10.0 mi Calm Calm - N/A   Clear
8:53 AM 33.1 °F - 30.9 °F 92% 30.15 in 10.0 mi Calm Calm - N/A   Clear
9:53 AM 42.1 °F - 33.1 °F 70% 30.17 in 10.0 mi Calm Calm - N/A   Clear
10:53 AM 46.9 °F - 33.1 °F 59% 30.16 in 10.0 mi Calm Calm - N/A   Mostly Cloudy
11:53 AM 51.1 °F - 30.0 °F 44% 30.14 in 10.0 mi East 6.9 mph - N/A   Scattered Clouds
12:53 PM 52.0 °F - 30.9 °F 45% 30.12 in 10.0 mi East 4.6 mph - N/A   Overcast
1:53 PM 52.0 °F - 32.0 °F 47% 30.09 in 10.0 mi ENE 4.6 mph - N/A   Overcast
2:53 PM 53.1 °F - 33.1 °F 47% 30.05 in 10.0 mi SE 5.8 mph - N/A   Overcast
3:53 PM 54.0 °F - 33.1 °F 45% 30.03 in 10.0 mi ENE 3.5 mph - N/A   Overcast
4:53 PM 55.9 °F - 33.1 °F 42% 30.00 in 10.0 mi East 4.6 mph - N/A   Overcast
5:53 PM 55.0 °F - 32.0 °F 42% 29.98 in 10.0 mi ENE 5.8 mph - N/A   Mostly Cloudy
6:53 PM 52.0 °F - 34.0 °F 50% 29.99 in 10.0 mi North 4.6 mph - N/A   Overcast
7:53 PM 48.9 °F - 36.0 °F 61% 30.01 in 10.0 mi NNE 10.4 mph - N/A   Overcast
8:12 PM 46.4 °F 40.7 °F 39.2 °F 76% 30.01 in 7.0 mi NNE 12.7 mph 19.6 mph 0.10 in Rain , Thunderstorm Light Thunderstorms and Rain
8:27 PM 44.6 °F 40.2 °F 39.2 °F 81% 30.01 in 10.0 mi NE 8.1 mph 18.4 mph 0.10 in   Overcast
8:53 PM 45.0 °F 39.7 °F 39.0 °F 80% 30.05 in 10.0 mi NNE 10.4 mph - 0.10 in   Overcast
9:41 PM 44.6 °F 40.2 °F 37.4 °F 76% 30.02 in 6.0 mi East 8.1 mph - 0.05 in Rain , Thunderstorm Light Rain
9:53 PM 43.0 °F 38.8 °F 39.0 °F 86% 30.05 in 5.0 mi NNE 6.9 mph - 0.09 in Rain Light Rain
10:53 PM 43.0 °F 41.3 °F 39.9 °F 89% 30.03 in 10.0 mi East 3.5 mph - 0.00 in   Overcast
11:53 PM 43.0 °F - 39.9 °F 89% 30.01 in 10.0 mi Calm Calm - N/A   Overcast